Groton, CT

9:12 PM EDT on May 21, 2018 (GMT -0400)
Groton-New London

Weather History for KGON - November, 2011

Change the Weather History Date:

Friday, November 4, 2011

  Actual Average Record
Temperature  
Mean Temperature 46 °F -  
Max Temperature 53 °F 58 °F 74 °F (1975)
Min Temperature 39 °F 41 °F 28 °F (2004)
Degree Days  
Heating Degree Days 19    
Moisture  
Dew Point 35 °F    
Average Humidity 70    
Maximum Humidity 100    
Minimum Humidity 31    
Precipitation  
Precipitation 0.00 in - - ()
Sea Level Pressure  
Sea Level Pressure 30.00 in    
Wind  
Wind Speed 6 mph (North)    
Max Wind Speed 20 mph    
Max Gust Speed 31 mph    
Visibility 8 miles    
Events Fog    
Averages and records for this station are not official NWS values.
T = Trace of Precipitation, MM = Missing Value Source: NWS Daily Summary

Daily Weather History Graph

Daily Weather History Graph

Search for Another Location

Airport or City:

Astronomy

Nov. 04, 2011 Rise Set
Actual Time 7:22 AM EDT 5:40 PM EDT
Civil Twilight 6:53 AM EDT 6:08 PM EDT
Nautical Twilight 6:21 AM EDT 6:41 PM EDT
Astronomical Twilight 5:48 AM EDT 7:13 PM EDT
Moon 2:33 PM EDT (11/4) 1:28 AM EDT (11/4)
Length of Visible Light 11h 15m
Length of Day
10h 17m
Waxing Gibbous, 69% of the Moon is Illuminated
Nov 4
Waxing Gibbous
Nov 10
Full
Nov 18
Last Quarter
Nov 25
New
Dec 2
First Quarter

Hourly Weather History & Observations

Time (EDT) Temp. Windchill Dew Point Humidity Pressure Visibility Wind Dir Wind Speed Gust Speed Precip Events Conditions
12:56 AM 52.0 °F - 50.0 °F 93% 29.91 in 10.0 mi West 4.6 mph - N/A   Clear
1:56 AM 46.4 °F 44.3 °F 44.6 °F 93% 29.90 in 4.0 mi NNE 4.6 mph - N/A   Clear
2:35 AM 44.6 °F - 44.6 °F 100% 29.89 in 2.5 mi Calm Calm - N/A   Clear
2:52 AM 44.6 °F - 44.6 °F 100% 29.89 in 4.0 mi Calm Calm - N/A   Clear
2:56 AM 45.0 °F - 45.0 °F 100% 29.89 in 4.0 mi Calm Calm - N/A   Clear
3:09 AM 44.6 °F - 44.6 °F 100% 29.89 in 1.5 mi Calm Calm - N/A   Clear
3:18 AM 44.6 °F - 44.6 °F 100% 29.89 in 0.5 mi Calm Calm - N/A Fog Fog
3:22 AM 44.6 °F - 44.6 °F 100% 29.89 in 1.0 mi Calm Calm - N/A   Clear
3:35 AM 44.6 °F - 44.6 °F 100% 29.89 in 4.0 mi Calm Calm - N/A   Clear
3:56 AM 48.0 °F - 46.9 °F 96% 29.88 in 7.0 mi Calm Calm - N/A   Clear
4:56 AM 46.4 °F 45.2 °F 44.6 °F 93% 29.89 in 6.0 mi North 3.5 mph - N/A   Clear
5:56 AM 46.9 °F - 45.0 °F 93% 29.91 in 5.0 mi Calm Calm - N/A   Clear
6:56 AM 46.0 °F 41.4 °F 43.0 °F 89% 29.93 in 7.0 mi North 9.2 mph - N/A   Clear
7:56 AM 46.0 °F 41.9 °F 42.1 °F 86% 29.97 in 10.0 mi North 8.1 mph - N/A   Clear
8:56 AM 46.0 °F 42.5 °F 42.1 °F 86% 29.99 in 10.0 mi North 6.9 mph - N/A   Clear
9:56 AM 46.4 °F 40.1 °F 37.4 °F 71% 29.98 in 10.0 mi North 15.0 mph 25.3 mph N/A   Clear
10:56 AM 50.0 °F - 34.0 °F 54% 30.00 in 10.0 mi North 16.1 mph 21.9 mph N/A   Scattered Clouds
11:56 AM 51.1 °F - 33.1 °F 50% 30.01 in 10.0 mi North 16.1 mph 23.0 mph N/A   Scattered Clouds
12:56 PM 51.1 °F - 32.0 °F 48% 30.00 in 10.0 mi North 6.9 mph 18.4 mph N/A   Clear
1:56 PM 53.6 °F - 24.8 °F 33% 29.98 in 10.0 mi North 19.6 mph 28.8 mph N/A   Clear
2:56 PM 52.0 °F - 21.9 °F 31% 30.00 in 10.0 mi North 17.3 mph 31.1 mph N/A   Clear
3:56 PM 51.1 °F - 21.9 °F 32% 30.03 in 10.0 mi North 16.1 mph 25.3 mph N/A   Clear
4:56 PM 50.0 °F - 21.2 °F 32% 30.05 in 10.0 mi North 12.7 mph 17.3 mph N/A   Clear
5:56 PM 46.4 °F 42.9 °F 21.2 °F 37% 30.10 in 10.0 mi North 6.9 mph - N/A   Clear
6:56 PM 44.1 °F 39.0 °F 23.0 °F 43% 30.13 in 10.0 mi NNW 9.2 mph - N/A   Partly Cloudy
7:56 PM 44.1 °F 39.0 °F 23.0 °F 43% 30.17 in 10.0 mi North 9.2 mph - N/A   Clear
8:56 PM 43.0 °F 35.7 °F 21.9 °F 43% 30.21 in 10.0 mi North 15.0 mph - N/A   Clear
9:56 PM 41.0 °F 35.2 °F 23.0 °F 49% 30.23 in 10.0 mi North 9.2 mph - N/A   Clear
10:56 PM 39.2 °F 33.0 °F 24.8 °F 56% 30.24 in 10.0 mi North 9.2 mph - N/A   Clear
11:56 PM 39.0 °F 32.3 °F 24.1 °F 55% 30.24 in 10.0 mi North 10.4 mph - N/A   Clear